| time (UTC) | temp F | wind direction | speed MPH | gust MPH | rain 1hr in | rain 24hr in | rain mn in | humidity % | barometer mb |
| 20260831194203 | 82 | 305 | 3.0 | 5.0 | 0.00 | 0.00 | 0.00 | 46 | 1008.5 |
| 20260831193704 | 82 | 305 | 2.0 | 3.0 | 0.00 | 0.00 | 0.00 | 46 | 1008.5 |
| 20260831193203 | 82 | 305 | 2.0 | 5.0 | 0.00 | 0.00 | 0.00 | 45 | 1008.5 |
| 20260831190704 | 83 | 305 | 3.0 | 7.0 | 0.00 | 0.00 | 0.00 | 43 | 1008.5 |
| 20260831184703 | 84 | 345 | 2.0 | 5.0 | 0.00 | 0.00 | 0.00 | 41 | 1007.9 |
| 20260831184203 | 84 | 346 | 2.0 | 3.0 | 0.00 | 0.00 | 0.00 | 40 | 1007.9 |
| 20260831180205 | 87 | 348 | 0.0 | 3.0 | 0.00 | 0.00 | 0.00 | 37 | 1007.9 |
| 20260831174205 | 89 | 348 | 1.0 | 3.0 | 0.00 | 0.00 | 0.00 | 34 | 1007.9 |
| 20260831173205 | 90 | 347 | 1.0 | 3.0 | 0.00 | 0.00 | 0.00 | 34 | 1007.9 |
| 20260831171205 | 90 | 338 | 1.0 | 3.0 | 0.00 | 0.00 | 0.00 | 33 | 1007.9 |
| 20260831170705 | 90 | 336 | 2.0 | 5.0 | 0.00 | 0.00 | 0.00 | 32 | 1007.9 |
| 20260831164705 | 91 | 334 | 2.0 | 5.0 | 0.00 | 0.00 | 0.00 | 33 | 1007.9 |
| 20260831164205 | 91 | 355 | 2.0 | 3.0 | 0.00 | 0.00 | 0.00 | 32 | 1007.9 |
| 20260831163705 | 91 | 356 | 2.0 | 3.0 | 0.00 | 0.00 | 0.00 | 33 | 1007.9 |
| 20260831163205 | 91 | 5 | 2.0 | 3.0 | 0.00 | 0.00 | 0.00 | 32 | 1007.9 |
| 20260831154704 | 93 | 0 | 0.0 | 3.0 | 0.00 | 0.00 | 0.00 | 28 | 1008.2 |
| 20260831154205 | 93 | 0 | 1.0 | 3.0 | 0.00 | 0.00 | 0.00 | 29 | 1008.2 |
| 20260831153204 | 93 | 324 | 1.0 | 6.0 | 0.00 | 0.00 | 0.00 | 31 | 1008.2 |
| 20260831151705 | 93 | 18 | 2.0 | 5.0 | 0.00 | 0.00 | 0.00 | 30 | 1008.2 |
| 20260831151205 | 93 | 36 | 2.0 | 3.0 | 0.00 | 0.00 | 0.00 | 30 | 1008.3 |
| 20260831150705 | 93 | 40 | 3.0 | 6.0 | 0.00 | 0.00 | 0.00 | 30 | 1008.3 |
| 20260831144705 | 93 | 11 | 1.0 | 6.0 | 0.00 | 0.00 | 0.00 | 29 | 1008.3 |
| 20260831134705 | 92 | 49 | 2.0 | 5.0 | 0.00 | 0.00 | 0.00 | 30 | 1008.5 |
| 20260831134204 | 93 | 50 | 2.0 | 5.0 | 0.00 | 0.00 | 0.00 | 30 | 1008.5 |
| 20260831131705 | 92 | 16 | 1.0 | 3.0 | 0.00 | 0.00 | 0.00 | 32 | 1008.5 |
| 20260831131204 | 92 | 5 | 2.0 | 5.0 | 0.00 | 0.00 | 0.00 | 31 | 1009.0 |
| 20260831130705 | 92 | 14 | 3.0 | 6.0 | 0.00 | 0.00 | 0.00 | 31 | 1009.0 |
| 20260831124705 | 90 | 9 | 3.0 | 7.0 | 0.00 | 0.00 | 0.00 | 33 | 1009.0 |
| 20260831124205 | 90 | 9 | 2.0 | 7.0 | 0.00 | 0.00 | 0.00 | 33 | 1009.0 |
| 20260831123705 | 91 | 4 | 2.0 | 3.0 | 0.00 | 0.00 | 0.00 | 33 | 1009.5 |
| 20260831121204 | 90 | 19 | 2.0 | 6.0 | 0.00 | 0.00 | 0.00 | 35 | 1009.5 |
| 20260831113205 | 89 | 51 | 2.0 | 5.0 | 0.00 | 0.00 | 0.00 | 35 | 1009.8 |
| 20260831110705 | 88 | 16 | 2.0 | 5.0 | 0.00 | 0.00 | 0.00 | 37 | 1009.8 |
| 20260831110205 | 88 | 37 | 3.0 | 10.0 | 0.00 | 0.00 | 0.00 | 38 | 1010.0 |
| 20260831103204 | 88 | 326 | 3.0 | 7.0 | 0.00 | 0.00 | 0.00 | 38 | 1010.0 |
| 20260831101205 | 88 | 50 | 2.0 | 5.0 | 0.00 | 0.00 | 0.00 | 37 | 1010.0 |
| 20260831094204 | 88 | 44 | 1.0 | 3.0 | 0.00 | 0.00 | 0.00 | 38 | 1010.0 |
| 20260831093204 | 87 | 44 | 2.0 | 3.0 | 0.00 | 0.00 | 0.00 | 38 | 1010.2 |
| 20260831091704 | 86 | 26 | 1.0 | 3.0 | 0.00 | 0.00 | 0.00 | 38 | 1010.2 |
| 20260831084204 | 84 | 9 | 0.0 | 2.0 | 0.00 | 0.00 | 0.00 | 40 | 1010.1 |
| 20260831083704 | 84 | 9 | 1.0 | 3.0 | 0.00 | 0.00 | 0.00 | 41 | 1010.1 |
| 20260831083205 | 84 | 9 | 2.0 | 3.0 | 0.00 | 0.00 | 0.00 | 40 | 1010.1 |
| 20260831081704 | 84 | 5 | 2.0 | 3.0 | 0.00 | 0.00 | 0.00 | 40 | 1010.1 |
| 20260831081204 | 84 | 5 | 1.0 | 2.0 | 0.00 | 0.00 | 0.00 | 40 | 1010.1 |
| 20260831080704 | 84 | 5 | 0.0 | 2.0 | 0.00 | 0.00 | 0.00 | 41 | 1010.1 |
| 20260831074705 | 82 | 0 | 0.0 | 2.0 | 0.00 | 0.00 | 0.00 | 45 | 1010.1 |
| 20260831073704 | 81 | 0 | 0.0 | 1.0 | 0.00 | 0.00 | 0.00 | 45 | 1010.0 |
| 20260831071704 | 79 | 0 | 0.0 | 0.0 | 0.00 | 0.00 | 0.00 | 47 | 1010.0 |
| 20260831070204 | 78 | 267 | 1.0 | 3.0 | 0.00 | 0.00 | 0.00 | 47 | 1010.0 |
| 20260831064704 | 76 | 267 | 1.0 | 2.0 | 0.00 | 0.00 | 0.00 | 49 | 1009.9 |
| 20260831063705 | 75 | 267 | 1.0 | 2.0 | 0.00 | 0.00 | 0.00 | 50 | 1009.9 |
| 20260831061704 | 74 | 267 | 2.0 | 3.0 | 0.00 | 0.00 | 0.00 | 51 | 1009.8 |
| 20260831061205 | 73 | 267 | 2.0 | 6.0 | 0.00 | 0.00 | 0.00 | 51 | 1009.5 |
| 20260831060705 | 73 | 267 | 5.0 | 8.0 | 0.00 | 0.00 | 0.00 | 52 | 1009.5 |
| 20260831060204 | 72 | 267 | 3.0 | 6.0 | 0.00 | 0.00 | 0.00 | 54 | 1009.5 |
| 20260831053705 | 71 | 267 | 1.0 | 3.0 | 0.00 | 0.00 | 0.00 | 57 | 1009.5 |
| 20260831053204 | 71 | 267 | 3.0 | 5.0 | 0.00 | 0.00 | 0.00 | 56 | 1009.5 |
| 20260831051705 | 71 | 267 | 2.0 | 3.0 | 0.00 | 0.00 | 0.00 | 57 | 1009.5 |
| 20260831051205 | 71 | 267 | 3.0 | 3.0 | 0.00 | 0.00 | 0.00 | 57 | 1009.5 |
| 20260831044705 | 71 | 267 | 3.0 | 5.0 | 0.00 | 0.00 | 0.00 | 56 | 1009.5 |
| 20260831044204 | 71 | 267 | 3.0 | 3.0 | 0.00 | 0.00 | 0.00 | 56 | 1009.5 |
| 20260831043705 | 71 | 267 | 3.0 | 5.0 | 0.00 | 0.00 | 0.00 | 56 | 1009.3 |
| 20260831043205 | 71 | 267 | 2.0 | 7.0 | 0.00 | 0.00 | 0.00 | 56 | 1009.3 |
| 20260831041704 | 71 | 267 | 1.0 | 3.0 | 0.00 | 0.00 | 0.00 | 57 | 1009.3 |
| 20260831041205 | 71 | 267 | 1.0 | 3.0 | 0.00 | 0.00 | 0.00 | 57 | 1009.3 |
| 20260831034704 | 71 | 267 | 2.0 | 6.0 | 0.00 | 0.00 | 0.00 | 55 | 1009.2 |
| 20260831034204 | 71 | 267 | 2.0 | 5.0 | 0.00 | 0.00 | 0.00 | 55 | 1009.5 |
| 20260831033205 | 71 | 267 | 2.0 | 9.0 | 0.00 | 0.00 | 0.00 | 54 | 1009.5 |
| 20260831031205 | 72 | 284 | 5.0 | 7.0 | 0.00 | 0.00 | 0.00 | 54 | 1009.5 |
| 20260831030704 | 71 | 286 | 4.0 | 7.0 | 0.00 | 0.00 | 0.00 | 55 | 1009.5 |
| 20260831030204 | 71 | 286 | 4.0 | 6.0 | 0.00 | 0.00 | 0.00 | 55 | 1009.5 |
| 20260831024706 | 71 | 286 | 2.0 | 3.0 | 0.00 | 0.00 | 0.00 | 58 | 1009.6 |
| 20260831020704 | 71 | 287 | 2.0 | 6.0 | 0.00 | 0.00 | 0.00 | 57 | 1009.9 |
| 20260831020205 | 71 | 287 | 5.0 | 5.0 | 0.00 | 0.00 | 0.00 | 58 | 1009.9 |
| 20260831014704 | 72 | 287 | 1.0 | 3.0 | 0.00 | 0.00 | 0.00 | 56 | 1009.9 |
| 20260831014204 | 72 | 287 | 2.0 | 3.0 | 0.00 | 0.00 | 0.00 | 56 | 1009.9 |
| 20260831013705 | 72 | 287 | 1.0 | 3.0 | 0.00 | 0.00 | 0.00 | 56 | 1009.8 |
| 20260831011204 | 72 | 287 | 1.0 | 3.0 | 0.00 | 0.00 | 0.00 | 56 | 1009.8 |
| 20260831010705 | 72 | 287 | 1.0 | 3.0 | 0.00 | 0.00 | 0.00 | 56 | 1009.8 |
| 20260831004705 | 73 | 287 | 2.0 | 3.0 | 0.00 | 0.00 | 0.00 | 57 | 1010.0 |
| 20260831001704 | 73 | 287 | 3.0 | 5.0 | 0.00 | 0.00 | 0.00 | 55 | 1010.0 |
| 20260831001204 | 73 | 287 | 2.0 | 3.0 | 0.00 | 0.00 | 0.00 | 55 | 1010.0 |
| 20260831000204 | 73 | 287 | 2.0 | 3.0 | 0.00 | 0.00 | 0.00 | 55 | 1010.0 |
| 20260830234704 | 74 | 287 | 1.0 | 3.0 | 0.00 | 0.00 | 0.00 | 54 | 1010.0 |
| 20260830233704 | 74 | 287 | 1.0 | 3.0 | 0.00 | 0.00 | 0.00 | 54 | 1010.0 |
| 20260830230706 | 74 | 287 | 3.0 | 6.0 | 0.00 | 0.00 | 0.00 | 53 | 1010.0 |
| 20260830221704 | 74 | 5 | 2.0 | 3.0 | 0.00 | 0.00 | 0.00 | 54 | 1009.8 |
| 20260830220705 | 75 | 5 | 1.0 | 3.0 | 0.00 | 0.00 | 0.00 | 54 | 1009.8 |
| 20260830214704 | 75 | 5 | 1.0 | 2.0 | 0.00 | 0.00 | 0.00 | 53 | 1009.8 |
| 20260830213704 | 75 | 5 | 1.0 | 2.0 | 0.00 | 0.00 | 0.00 | 53 | 1009.7 |
| 20260830213204 | 75 | 5 | 1.0 | 3.0 | 0.00 | 0.00 | 0.00 | 53 | 1009.5 |
| 20260830211204 | 76 | 5 | 1.0 | 3.0 | 0.00 | 0.00 | 0.00 | 53 | 1009.5 |
| 20260830201703 | 77 | 5 | 2.0 | 3.0 | 0.00 | 0.00 | 0.00 | 50 | 1009.5 |
| 20260830200203 | 77 | 5 | 1.0 | 2.0 | 0.00 | 0.00 | 0.00 | 50 | 1009.5 |